This demonstration page uses our WeatherBlox Daily Observations layout. Learn more.

Left ArrowRight Arrow

Hourly Observations for June 24, 2015

Temp ( °F °C ) Dew Point ( °F °C ) Humidity (%) Winds ( mph kmh ) Pressure ( in mb ) Visibility ( mi km ) Precip ( " mm )
12:51 am 00:51 Clear 84 28.9 55 12.8 37 37 E 9 15 29.76 1008 10 16 0.00 0.00
1:51 am 01:51 Clear 83 28.3 59 15 44 44 E 9 15 29.78 1008 10 16 0.00 0.00
2:51 am 02:51 Clear 83 28.3 59 15 44 44 E 9 15 29.79 1009 10 16 0.00 0.00
3:51 am 03:51 Clear 81 27.2 59 15 47 47 E 10 17 29.81 1009 10 16 0.00 0.00
4:51 am 04:51 Clear 82 27.8 58 14.4 44 44 E 16 26 29.83 1010 10 16 0.00 0.00
5:51 am 05:51 Sunny 81 27.2 59 15 47 47 ESE 15 24 29.85 1011 10 16 0.00 0.00
6:51 am 06:51 Sunny 84 28.9 60 15.6 44 44 ESE 15 24 29.86 1011 10 16 0.00 0.00
7:51 am 07:51 Sunny 86 30 60 15.6 42 42 ESE 14 22 29.87 1012 10 16 0.00 0.00
8:51 am 08:51 Sunny 88 31.1 60 15.6 39 39 ESE 9 15 29.88 1012 10 16 0.00 0.00
9:51 am 09:51 Sunny 91 32.8 59 15 34 34 VRB 7 11 29.87 1011 10 16 0.00 0.00
10:51 am 10:51 Sunny 92 33.3 58 14.4 32 32 SW 10 17 29.85 1011 10 16 0.00 0.00
11:51 am 11:51 Sunny 93 33.9 57 13.9 30 30 VRB 5 7 29.83 1010 10 16 0.00 0.00
12:51 pm 12:51 Sunny 98 36.7 55 12.8 24 24 SSE 12 19 29.78 1008 10 16 0.00 0.00
1:51 pm 13:51 Sunny 99 37.2 52 11.1 21 21 SSW 7 11 29.75 1007 10 16 0.00 0.00
2:47 pm 14:47 Sunny with Nearby Thunderstorms 100 38 52 11 20 20 WNW 9 15 29.62 1003 10 16 0.00 0.00
2:51 pm 14:51 Sunny with Nearby Thunderstorms 102 38.9 50 10 17 17 W 14 22 29.71 1006 10 16 0.00 0.00
3:03 pm 15:03 Partly Cloudy with Thunderstorms 102 39 52 11 18 18 W 14 22 29.59 1002 10 16 0.00 0.00
3:14 pm 15:14 Partly Cloudy with Nearby Thunderstorms 101 38.3 50 10 18 18 NNW 20 31 29.62 1003 10 16 0.00 0.00
3:26 pm 15:26 Partly Cloudy with Thunderstorms 93 34 55 13 28 28 ENE 37 59 29.68 1005 8 13 0.00 0.00
3:36 pm 15:36 Very Windy with Storms Likely 85 29.4 56 13.3 37 37 ENE 40 65 29.74 1007 4 6 0.00 0.03
3:51 pm 15:51 Cloudy with Strong Thunderstorms 88 31.1 73 22.8 61 61 E 33 54 30.06 1018 4 6 0.00 0.03
4:25 pm 16:25 Mostly Cloudy with Light Rain 78 25.6 63 17.2 60 60 ENE 23 37 29.77 1008 10 16 0.08 2.03
4:51 pm 16:51 Mostly Cloudy with Light Rain 83 28.3 57 13.9 41 41 E 16 26 29.81 1010 10 16 0.08 2.03
4:59 pm 16:59 Mostly Cloudy with Light Rain 81 27.2 59 15 47 47 SSW 17 28 29.80 1009 10 16 0.00 0.03
5:09 pm 17:09 Cloudy with Light Rain 79 26 61 16 54 54 W 10 17 29.80 1009 10 16 0.00 0.00
6:51 pm 18:51 Sunny 71 21.7 58 14.4 63 63 W 7 11 30.01 1016 10 16 0.00 0.00
7:51 pm 19:51 Clear 81 27.2 61 16.1 51 51 NE 7 11 29.80 1009 10 16 0.00 0.00
8:51 pm 20:51 Clear 80 26.7 58 14.4 47 47 E 7 11 29.83 1010 10 16 0.00 0.00
9:51 pm 21:51 Clear 79 26.1 59 15 50 50 S 6 9 29.85 1011 10 16 0.00 0.00
10:51 pm 22:51 Clear 79 26.1 60 15.6 52 52 SW 5 7 29.83 1010 10 16 0.00 0.00
11:51 pm 23:51 Mostly Cloudy 86 29.9 77 24.8 74 74 E 10 17 29.79 1009 10 16 0.00 0.00

Powered by AerisWeather